Boomer, NC

8:48 AM EDT on September 28, 2016 (GMT -0400)
Wilkes County

Weather History for KUKF - March, 2014

Change the Weather History Date:

Sunday, March 30, 2014

  Actual Average Record
Temperature  
Mean Temperature 45 °F -  
Max Temperature 53 °F 65 °F 88 °F (1985)
Min Temperature 37 °F 40 °F 20 °F (1964)
Degree Days  
Heating Degree Days 20    
Moisture  
Dew Point 27 °F    
Average Humidity 54    
Maximum Humidity 70    
Minimum Humidity 35    
Precipitation  
Precipitation 0.00 in - - ()
Sea Level Pressure  
Sea Level Pressure 29.92 in    
Wind  
Wind Speed 12 mph (NW)    
Max Wind Speed 24 mph    
Max Gust Speed 39 mph    
Visibility 10 miles    
Events      
Averages and records for this station are not official NWS values.
T = Trace of Precipitation, MM = Missing Value Source: NWS Daily Summary

Daily Weather History Graph

Daily Weather History Graph

Search for Another Location

Airport or City:

Trip Planner

Search our weather history database for the weather conditions in past years. The results will help you decide how hot, cold, wet, or windy it might be!

Date:

Astronomy

Mar. 30, 2014 Rise Set
Actual Time 7:13 AM EDT 7:44 PM EDT
Civil Twilight 6:47 AM EDT 8:10 PM EDT
Nautical Twilight 6:17 AM EDT 8:40 PM EDT
Astronomical Twilight 5:46 AM EDT 9:12 PM EDT
Moon 6:58 AM EDT (3/30) 7:54 PM EDT (3/30)
Length of Visible Light 13h 22m
Length of Day
12h 31m
Waning Crescent, 0% of the Moon is Illuminated
Mar 30
Waning Crescent
Mar 30
New
Apr 7
First Quarter
Apr 15
Full
Apr 22
Last Quarter

Hourly Weather History & Observations

Time (EDT) Temp. Windchill Dew Point Humidity Pressure Visibility Wind Dir Wind Speed Gust Speed Precip Events Conditions
12:15 AM 42.8 °F 36.2 °F 32.0 °F 66% 29.76 in 10.0 mi WNW 12.7 mph 32.2 mph N/A   Overcast
12:35 AM 42.8 °F 34.0 °F 30.2 °F 61% 29.77 in 10.0 mi NW 20.7 mph 34.5 mph N/A   Overcast
12:55 AM 41.0 °F 32.5 °F 30.2 °F 65% 29.77 in 10.0 mi NW 17.3 mph 32.2 mph N/A   Scattered Clouds
1:15 AM 41.0 °F 30.9 °F 30.2 °F 65% 29.77 in 10.0 mi WNW 24.2 mph 38.0 mph N/A   Mostly Cloudy
1:35 AM 39.2 °F 31.6 °F 28.4 °F 65% 29.78 in 10.0 mi WNW 12.7 mph 31.1 mph N/A   Mostly Cloudy
1:55 AM 39.2 °F 30.8 °F 28.4 °F 65% 29.77 in 10.0 mi WNW 15.0 mph 25.3 mph N/A   Mostly Cloudy
2:15 AM 37.4 °F 27.8 °F 28.4 °F 70% 29.78 in 10.0 mi NW 17.3 mph 26.5 mph N/A   Mostly Cloudy
2:35 AM 37.4 °F 28.2 °F 28.4 °F 70% 29.78 in 10.0 mi WNW 16.1 mph 24.2 mph N/A   Overcast
2:55 AM 37.4 °F 29.3 °F 28.4 °F 70% 29.78 in 10.0 mi NW 12.7 mph 20.7 mph N/A   Scattered Clouds
3:15 AM 37.4 °F 29.8 °F 28.4 °F 70% 29.78 in 10.0 mi WNW 11.5 mph 17.3 mph N/A   Scattered Clouds
3:35 AM 37.4 °F 30.8 °F 26.6 °F 65% 29.78 in 10.0 mi NW 9.2 mph - N/A   Scattered Clouds
3:55 AM 37.4 °F 30.8 °F 26.6 °F 65% 29.78 in 10.0 mi NW 9.2 mph 23.0 mph N/A   Mostly Cloudy
4:15 AM 37.4 °F 30.3 °F 26.6 °F 65% 29.77 in 10.0 mi NW 10.4 mph 20.7 mph N/A   Mostly Cloudy
4:35 AM 37.4 °F 28.2 °F 26.6 °F 65% 29.77 in 10.0 mi WNW 16.1 mph 23.0 mph N/A   Scattered Clouds
4:55 AM 37.4 °F 29.8 °F 26.6 °F 65% 29.78 in 10.0 mi WNW 11.5 mph 25.3 mph N/A   Mostly Cloudy
5:15 AM 37.4 °F 30.3 °F 26.6 °F 65% 29.78 in 10.0 mi West 10.4 mph 19.6 mph N/A   Overcast
5:35 AM 37.4 °F 31.4 °F 26.6 °F 65% 29.79 in 10.0 mi West 8.1 mph 17.3 mph N/A   Overcast
5:55 AM 37.4 °F 29.3 °F 26.6 °F 65% 29.79 in 10.0 mi WNW 12.7 mph 21.9 mph N/A   Overcast
6:15 AM 37.4 °F 30.3 °F 26.6 °F 65% 29.80 in 10.0 mi WNW 10.4 mph 21.9 mph N/A   Overcast
6:35 AM 37.4 °F 31.4 °F 26.6 °F 65% 29.80 in 10.0 mi WNW 8.1 mph 24.2 mph N/A   Mostly Cloudy
6:55 AM 37.4 °F 32.1 °F 26.6 °F 65% 29.82 in 10.0 mi West 6.9 mph 19.6 mph N/A   Scattered Clouds
7:15 AM 37.4 °F 32.1 °F 26.6 °F 65% 29.83 in 10.0 mi WNW 6.9 mph 19.6 mph N/A   Mostly Cloudy
7:35 AM 37.4 °F 32.8 °F 26.6 °F 65% 29.84 in 10.0 mi West 5.8 mph - N/A   Overcast
7:55 AM 37.4 °F 30.8 °F 28.4 °F 70% 29.86 in 10.0 mi West 9.2 mph - N/A   Overcast
8:15 AM 37.4 °F 31.4 °F 28.4 °F 70% 29.87 in 10.0 mi West 8.1 mph - N/A   Overcast
8:35 AM 39.2 °F 33.0 °F 28.4 °F 65% 29.87 in 10.0 mi WNW 9.2 mph 18.4 mph N/A   Overcast
8:55 AM 39.2 °F 35.0 °F 28.4 °F 65% 29.89 in 10.0 mi NW 5.8 mph 19.6 mph N/A   Overcast
9:15 AM 39.2 °F 32.0 °F 28.4 °F 65% 29.90 in 10.0 mi NW 11.5 mph 21.9 mph N/A   Overcast
9:35 AM 39.2 °F 32.5 °F 28.4 °F 65% 29.90 in 10.0 mi West 10.4 mph 16.1 mph N/A   Overcast
9:55 AM 41.0 °F 34.7 °F 28.4 °F 61% 29.90 in 10.0 mi WNW 10.4 mph 17.3 mph N/A   Overcast
10:15 AM 41.0 °F 35.8 °F 28.4 °F 61% 29.91 in 10.0 mi West 8.1 mph - N/A   Overcast
10:35 AM 41.0 °F 36.4 °F 30.2 °F 65% 29.92 in 10.0 mi NNW 6.9 mph - N/A   Overcast
10:55 AM 42.8 °F 41.1 °F 30.2 °F 61% 29.93 in 10.0 mi ENE 3.5 mph - N/A   Overcast
11:15 AM 42.8 °F 35.1 °F 30.2 °F 61% 29.95 in 10.0 mi NNW 16.1 mph 23.0 mph N/A   Overcast
11:30 AM 42.8 °F 34.8 °F 30.2 °F 61% 29.96 in 10.0 mi NW 17.3 mph 39.1 mph N/A   Overcast
11:55 AM 42.8 °F 35.1 °F 30.2 °F 61% 29.97 in 10.0 mi NW 16.1 mph 32.2 mph N/A   Overcast
12:15 PM 42.8 °F 36.6 °F 30.2 °F 61% 29.97 in 10.0 mi NW 11.5 mph 31.1 mph N/A   Overcast
12:35 PM 42.8 °F 35.4 °F 28.4 °F 57% 29.97 in 10.0 mi NW 15.0 mph 39.1 mph N/A   Overcast
12:55 PM 42.8 °F 34.8 °F 28.4 °F 57% 29.97 in 10.0 mi NW 17.3 mph 26.5 mph N/A   Scattered Clouds
1:15 PM 44.6 °F 37.4 °F 28.4 °F 53% 29.97 in 10.0 mi NW 16.1 mph 26.5 mph N/A   Scattered Clouds
1:35 PM 44.6 °F 36.6 °F 28.4 °F 53% 29.98 in 10.0 mi NW 19.6 mph 29.9 mph N/A   Scattered Clouds
1:55 PM 46.4 °F 40.1 °F 28.4 °F 50% 29.98 in 10.0 mi NW 15.0 mph 29.9 mph N/A   Clear
2:15 PM 50.0 °F - 32.0 °F 50% 29.97 in 10.0 mi NW 8.1 mph 19.6 mph N/A   Clear
2:35 PM 48.2 °F - 26.6 °F 43% 29.97 in 10.0 mi NW 21.9 mph 31.1 mph N/A   Clear
2:55 PM 50.0 °F - 28.4 °F 43% 29.96 in 10.0 mi NNW 10.4 mph 21.9 mph N/A   Clear
3:15 PM 51.8 °F - 28.4 °F 41% 29.96 in 10.0 mi WSW 10.4 mph 24.2 mph N/A   Clear
3:35 PM 50.0 °F - 26.6 °F 40% 29.97 in 10.0 mi NNW 17.3 mph 32.2 mph N/A   Clear
3:55 PM 50.0 °F - 26.6 °F 40% 29.97 in 10.0 mi NNW 12.7 mph 24.2 mph N/A   Clear
4:15 PM 51.8 °F - 26.6 °F 38% 29.97 in 10.0 mi NNW 18.4 mph 39.1 mph N/A   Clear
4:35 PM 51.8 °F - 26.6 °F 38% 29.97 in 10.0 mi NNW 17.3 mph 33.4 mph N/A   Clear
4:55 PM 51.8 °F - 26.6 °F 38% 29.98 in 10.0 mi North 15.0 mph 29.9 mph N/A   Clear
5:15 PM 51.8 °F - 26.6 °F 38% 29.99 in 10.0 mi NW 19.6 mph 25.3 mph N/A   Clear
5:35 PM 53.6 °F - 28.4 °F 38% 30.00 in 10.0 mi NNW 12.7 mph 24.2 mph N/A   Clear
5:55 PM 51.8 °F - 26.6 °F 38% 30.00 in 10.0 mi NW 12.7 mph 19.6 mph N/A   Clear
6:15 PM 50.0 °F - 24.8 °F 37% 30.01 in 10.0 mi NW 10.4 mph 20.7 mph N/A   Clear
6:35 PM 50.0 °F - 24.8 °F 37% 30.02 in 10.0 mi WNW 16.1 mph 24.2 mph N/A   Clear
6:55 PM 50.0 °F - 23.0 °F 35% 30.02 in 10.0 mi NW 9.2 mph 23.0 mph N/A   Clear
7:15 PM 50.0 °F - 23.0 °F 35% 30.02 in 10.0 mi NW 6.9 mph - N/A   Clear
7:35 PM 46.4 °F 42.4 °F 23.0 °F 40% 30.03 in 10.0 mi NNW 8.1 mph - N/A   Clear
7:55 PM 46.4 °F 42.9 °F 24.8 °F 43% 30.03 in 10.0 mi NNW 6.9 mph - N/A   Clear
8:15 PM 46.4 °F 42.9 °F 26.6 °F 46% 30.03 in 10.0 mi NW 6.9 mph - N/A   Clear
8:35 PM 46.4 °F 41.1 °F 26.6 °F 46% 30.03 in 10.0 mi WNW 11.5 mph 18.4 mph N/A   Clear
8:55 PM 46.4 °F 41.9 °F 26.6 °F 46% 30.03 in 10.0 mi WNW 9.2 mph 17.3 mph N/A   Clear
9:15 PM 46.4 °F 43.5 °F 26.6 °F 46% 30.03 in 10.0 mi West 5.8 mph - N/A   Clear
9:35 PM 46.4 °F 44.3 °F 26.6 °F 46% 30.04 in 10.0 mi SSW 4.6 mph - N/A   Clear
9:55 PM 46.4 °F - 24.8 °F 43% 30.04 in 10.0 mi Calm Calm - N/A   Clear
10:15 PM 46.4 °F - 23.0 °F 40% 30.05 in 10.0 mi Calm Calm - N/A   Clear
10:35 PM 46.4 °F 44.3 °F 23.0 °F 40% 30.05 in 10.0 mi West 4.6 mph 9.2 mph N/A   Clear
10:55 PM 46.4 °F - 23.0 °F 40% 30.06 in 10.0 mi Calm Calm - N/A   Clear
11:15 PM 46.4 °F - 23.0 °F 40% 30.06 in 10.0 mi Calm Calm - N/A   Clear
11:35 PM 44.6 °F 40.7 °F 23.0 °F 43% 30.06 in 10.0 mi NW 6.9 mph 16.1 mph N/A   Clear
11:55 PM 44.6 °F 41.4 °F 23.0 °F 43% 30.06 in 10.0 mi WNW 5.8 mph - N/A   Clear